FW8829 Weather Reports


Display with metric or nautical units.
time (UTC)temp
F
wind
direction
speed
MPH
gust
MPH
rain 1hr
in
rain 24hr
in
rain mn
in
humidity
%
barometer
mb
20260505021541 63 0 0.0 1.0 0.00 0.00 0.00 60 1016.1
20260505020040 64 187 0.0 2.0 0.00 0.00 0.00 58 1016.0
20260505014544 64 290 0.0 3.0 0.00 0.00 0.00 58 1016.0
20260505013043 64 272 0.0 2.0 0.00 0.00 0.00 58 1015.8
20260505011604 65 285 0.0 3.0 0.00 0.00 0.00 57 1015.7
20260505010049 66 289 1.0 3.0 0.00 0.00 0.00 55 1015.6
20260505004542 66 283 0.0 2.0 0.00 0.00 0.00 55 1015.6
20260505003041 67 270 1.0 4.0 0.00 0.00 0.00 53 1015.5
20260505001602 69 272 2.0 5.0 0.00 0.00 0.00 52 1015.4
20260505000104 70 286 2.0 4.0 0.00 0.00 0.00 51 1015.3
20260504234545 72 297 2.0 4.0 0.00 0.00 0.00 49 1015.3
20260504233057 73 312 1.0 4.0 0.00 0.00 0.00 48 1015.3
20260504231547 74 291 4.0 7.0 0.00 0.00 0.00 46 1015.3
20260504230053 76 340 1.0 5.0 0.00 0.00 0.00 45 1015.1
20260504224549 76 328 2.0 10.0 0.00 0.00 0.00 45 1015.2
20260504223044 75 335 2.0 7.0 0.00 0.00 0.00 44 1015.1
20260504221547 75 305 4.0 7.0 0.00 0.00 0.00 48 1015.2
20260504220043 75 319 2.0 6.0 0.00 0.00 0.00 44 1015.0
20260504214546 74 13 2.0 8.0 0.00 0.00 0.00 47 1015.1
20260504213045 73 286 4.0 10.0 0.00 0.00 0.00 48 1015.1
20260504211542 73 308 2.0 10.0 0.00 0.00 0.00 47 1015.1
20260504210044 73 310 3.0 7.0 0.00 0.00 0.00 47 1015.3
20260504204543 72 303 4.0 12.0 0.00 0.00 0.00 47 1015.6
20260504203050 72 334 2.0 12.0 0.00 0.00 0.00 50 1015.7
20260504201545 72 236 5.0 9.0 0.00 0.00 0.00 49 1016.0
20260504200043 71 280 6.0 11.0 0.00 0.00 0.00 49 1016.2
20260504194548 71 299 7.0 11.0 0.00 0.00 0.00 50 1016.5
20260504193044 70 295 3.0 12.0 0.00 0.00 0.00 54 1016.7
20260504191551 70 314 4.0 9.0 0.00 0.00 0.00 53 1017.2
20260504190040 71 289 4.0 8.0 0.00 0.00 0.00 55 1017.4
20260504184548 70 296 6.0 12.0 0.00 0.00 0.00 54 1017.5
20260504183044 69 302 5.0 12.0 0.00 0.00 0.00 55 1017.7
20260504181542 69 313 4.0 13.0 0.00 0.00 0.00 52 1017.8
20260504180043 68 327 4.0 12.0 0.00 0.00 0.00 52 1018.1
20260504174541 67 281 6.0 12.0 0.00 0.00 0.00 56 1018.2
20260504173043 67 313 2.0 8.0 0.00 0.00 0.00 51 1018.3
20260504171550 66 331 4.0 14.0 0.00 0.00 0.00 51 1018.4
20260504081550 48 0 0.0 4.0 0.00 0.00 0.00 64 1019.4
20260504044545 48 0 0.0 0.0 0.00 0.00 0.00 62 1019.6
20260504043050 48 0 0.0 0.0 0.00 0.00 0.00 66 1019.6
20260504041543 49 0 0.0 0.0 0.00 0.00 0.00 62 1019.4
20260504040049 49 0 0.0 0.0 0.00 0.00 0.00 60 1019.3
20260504034543 50 0 0.0 1.0 0.00 0.00 0.00 59 1019.5
20260504033044 50 0 0.0 1.0 0.00 0.00 0.00 60 1019.4
20260504031544 50 0 0.0 1.0 0.00 0.00 0.00 58 1019.4
20260504030044 50 0 0.0 1.0 0.00 0.00 0.00 58 1019.3
20260504024540 50 0 0.0 2.0 0.00 0.00 0.00 57 1019.3
20260504023043 51 0 0.0 3.0 0.00 0.00 0.00 56 1019.2